Weather History for Vidalia, GA

Change the Weather History Date:

Tuesday, April 30, 2013

  Actual Average (KAZE) Record (KAZE)
Temperature  
Mean Temperature 72 °F -  
Max Temperature 80 °F 79 °F 79 °F (2013)
Min Temperature 64 °F 47 °F 62 °F (2013)
Cooling Degree Days 7    
Growing Degree Days 22 (Base 50)    
Moisture  
Dew Point 64 °F    
Average Humidity 82    
Maximum Humidity 100    
Minimum Humidity 54    
Precipitation  
Precipitation 0.00 in - - ()
Sea Level Pressure  
Sea Level Pressure 30.03 in    
Wind  
Wind Speed 2 mph (ENE)    
Max Wind Speed 13 mph    
Max Gust Speed -    
Visibility 7 miles    
Events Fog    
Averages and records for this station are not official NWS values.
T = Trace of Precipitation, MM = Missing Value Source: NWS Daily Summary

Daily Weather History Graph

Daily Weather History Graph

Search for Another Location

Airport:

Trip Planner

Search our weather history database for the weather conditions in past years. The results will help you decide how hot, cold, wet, or windy it might be!

Date:

Astronomy

Apr. 30, 2013 Rise Set
Actual Time 6:43 AM EDT 8:09 PM EDT
Civil Twilight 6:18 AM EDT 8:35 PM EDT
Nautical Twilight 5:46 AM EDT 9:06 PM EDT
Astronomical Twilight 5:14 AM EDT 9:39 PM EDT
Moon 12:27 AM EDT (4/30) 11:14 AM EDT (4/30)
Length of Visible Light 14h 17m
Length of Day
13h 25m
Waning Gibbous, 70% of the Moon is Illuminated
Apr 30
Waning Gibbous
May 2
Last Quarter
May 9
New
May 18
First Quarter
May 25
Full

Hourly Weather History & Observations

Time (EDT) Temp. Heat Index Dew Point Humidity Pressure Visibility Wind Dir Wind Speed Gust Speed Precip Events Conditions
12:15 AM 64.4 °F - 62.6 °F 94% 29.97 in 10.0 mi Calm Calm - N/A   Clear
12:35 AM 64.4 °F - 62.6 °F 94% 29.97 in 10.0 mi Calm Calm - N/A   Clear
12:55 AM 64.4 °F - 62.6 °F 94% 29.97 in 10.0 mi Calm Calm - N/A   Clear
1:15 AM 64.4 °F - 62.6 °F 94% 29.98 in 10.0 mi Calm Calm - N/A   Scattered Clouds
1:35 AM 64.4 °F - 64.4 °F 100% 29.98 in 0.2 mi Calm Calm - N/A Fog Fog
1:55 AM 64.4 °F - 64.4 °F 100% 29.98 in 0.2 mi Calm Calm - N/A Fog Fog
2:15 AM 64.4 °F - 64.4 °F 100% 29.98 in 0.2 mi South 3.5 mph - N/A Fog Fog
2:35 AM 66.2 °F - 64.4 °F 94% 29.98 in 0.5 mi SSW 3.5 mph - N/A Fog Fog
2:55 AM 66.2 °F - 64.4 °F 94% 29.98 in 1.8 mi SW 3.5 mph - N/A   Overcast
3:15 AM 66.2 °F - 64.4 °F 94% 29.98 in 0.8 mi WSW 3.5 mph - N/A   Overcast
3:35 AM 64.4 °F - 64.4 °F 100% 29.98 in 0.2 mi Calm Calm - N/A Fog Fog
3:55 AM 64.4 °F - 64.4 °F 100% 29.98 in 0.2 mi Calm Calm - N/A Fog Fog
4:15 AM 64.4 °F - 64.4 °F 100% 29.98 in 0.2 mi Calm Calm - N/A Fog Fog
4:35 AM 64.4 °F - 64.4 °F 100% 29.99 in 0.2 mi Calm Calm - N/A Fog Fog
4:55 AM 64.4 °F - 64.4 °F 100% 29.99 in 0.2 mi Calm Calm - N/A Fog Fog
5:15 AM 64.4 °F - 64.4 °F 100% 29.99 in 0.2 mi Calm Calm - N/A Fog Fog
5:35 AM 64.4 °F - 64.4 °F 100% 29.99 in 0.2 mi Calm Calm - N/A Fog Fog
6:15 AM 64.4 °F - 64.4 °F 100% 30.00 in 0.2 mi Calm Calm - N/A Fog Fog
6:35 AM 64.4 °F - 64.4 °F 100% 30.01 in 0.2 mi Calm Calm - N/A Fog Fog
6:55 AM 64.4 °F - 64.4 °F 100% 30.01 in 0.2 mi Calm Calm - N/A Fog Fog
7:15 AM 64.4 °F - 64.4 °F 100% 30.02 in 0.2 mi Calm Calm - N/A Fog Fog
7:35 AM 64.4 °F - 64.4 °F 100% 30.03 in 0.5 mi Calm Calm - N/A Fog Fog
7:55 AM 64.4 °F - 64.4 °F 100% 30.03 in 1.0 mi Calm Calm - N/A   Overcast
8:15 AM 64.4 °F - 64.4 °F 100% 30.04 in 1.0 mi Calm Calm - N/A   Overcast
8:35 AM 64.4 °F - 64.4 °F 100% 30.04 in 1.0 mi East 3.5 mph - N/A   Overcast
8:55 AM 64.4 °F - 64.4 °F 100% 30.05 in 2.0 mi Calm Calm - N/A   Overcast
9:15 AM 64.4 °F - 64.4 °F 100% 30.05 in 1.8 mi Calm Calm - N/A   Overcast
9:35 AM 66.2 °F - 66.2 °F 100% 30.06 in 10.0 mi Calm Calm - N/A   Overcast
9:55 AM 66.2 °F - 66.2 °F 100% 30.06 in 10.0 mi ENE 3.5 mph - N/A   Overcast
10:15 AM 68.0 °F - 66.2 °F 94% 30.06 in 10.0 mi Calm Calm - N/A   Overcast
10:35 AM 68.0 °F - 66.2 °F 94% 30.06 in 10.0 mi NNE 3.5 mph - N/A   Overcast
10:55 AM 69.8 °F - 66.2 °F 88% 30.07 in 10.0 mi Calm Calm - N/A   Overcast
11:15 AM 69.8 °F - 64.4 °F 83% 30.07 in 10.0 mi NNE 3.5 mph - N/A   Overcast
11:35 AM 71.6 °F - 64.4 °F 78% 30.06 in 10.0 mi NNE 8.1 mph - N/A   Overcast
11:55 AM 73.4 °F - 64.4 °F 73% 30.05 in 10.0 mi ENE 4.6 mph - N/A   Overcast
12:15 PM 73.4 °F - 64.4 °F 73% 30.05 in 10.0 mi NE 4.6 mph - N/A   Overcast
12:35 PM 73.4 °F - 64.4 °F 73% 30.04 in 10.0 mi NE 5.8 mph - N/A   Mostly Cloudy
12:55 PM 75.2 °F - 64.4 °F 69% 30.04 in 10.0 mi North 5.8 mph - N/A   Scattered Clouds
1:35 PM 77.0 °F - 62.6 °F 61% 30.04 in 10.0 mi Calm Calm - N/A   Clear
1:55 PM 78.8 °F - 64.4 °F 61% 30.03 in 10.0 mi East 3.5 mph - N/A   Clear
2:15 PM 78.8 °F - 62.6 °F 57% 30.03 in 10.0 mi NNE 3.5 mph - N/A   Scattered Clouds
2:35 PM 78.8 °F - 62.6 °F 57% 30.03 in 10.0 mi NE 4.6 mph - N/A   Scattered Clouds
2:55 PM 80.6 °F 81.8 °F 62.6 °F 54% 30.02 in 10.0 mi North 4.6 mph - N/A   Clear
3:15 PM 80.6 °F 81.8 °F 62.6 °F 54% 30.02 in 10.0 mi NNE 4.6 mph - N/A   Clear
3:35 PM 80.6 °F 81.8 °F 62.6 °F 54% 30.02 in 10.0 mi North 6.9 mph - N/A   Clear
3:55 PM 80.6 °F 81.8 °F 62.6 °F 54% 30.02 in 10.0 mi NE 6.9 mph - N/A   Scattered Clouds
4:15 PM 80.6 °F 81.8 °F 62.6 °F 54% 30.01 in 10.0 mi Calm Calm - N/A   Scattered Clouds
4:35 PM 80.6 °F 81.8 °F 62.6 °F 54% 30.01 in 10.0 mi NE 8.1 mph - N/A   Scattered Clouds
4:55 PM 80.6 °F 81.8 °F 62.6 °F 54% 30.00 in 10.0 mi NE 6.9 mph - N/A   Scattered Clouds
5:15 PM 80.6 °F 81.8 °F 62.6 °F 54% 30.00 in 10.0 mi East 9.2 mph - N/A   Clear
5:35 PM 80.6 °F 81.8 °F 62.6 °F 54% 30.00 in 10.0 mi East 8.1 mph - N/A   Clear
5:55 PM 80.6 °F 81.8 °F 62.6 °F 54% 30.01 in 10.0 mi ENE 12.7 mph - N/A   Clear
6:35 PM 78.8 °F - 60.8 °F 54% 30.02 in 10.0 mi ENE 6.9 mph - N/A   Clear
6:55 PM 78.8 °F - 62.6 °F 57% 30.02 in 10.0 mi ENE 6.9 mph - N/A   Clear
7:15 PM 77.0 °F - 62.6 °F 61% 30.02 in 10.0 mi NE 5.8 mph - N/A   Clear
7:35 PM 77.0 °F - 62.6 °F 61% 30.02 in 10.0 mi NE 6.9 mph - N/A   Clear
7:55 PM 73.4 °F - 62.6 °F 69% 30.03 in 10.0 mi NE 5.8 mph - N/A   Clear
8:15 PM 71.6 °F - 64.4 °F 78% 30.03 in 10.0 mi East 4.6 mph - N/A   Clear
8:35 PM 71.6 °F - 64.4 °F 78% 30.03 in 10.0 mi ENE 5.8 mph - N/A   Clear
8:55 PM 71.6 °F - 64.4 °F 78% 30.04 in 10.0 mi ENE 4.6 mph - N/A   Clear
9:15 PM 71.6 °F - 64.4 °F 78% 30.05 in 10.0 mi ENE 6.9 mph - N/A   Clear
9:35 PM 71.6 °F - 64.4 °F 78% 30.07 in 10.0 mi ENE 6.9 mph - N/A   Clear
9:55 PM 69.8 °F - 64.4 °F 83% 30.07 in 10.0 mi ENE 4.6 mph - N/A   Scattered Clouds
10:15 PM 69.8 °F - 64.4 °F 83% 30.08 in 10.0 mi ENE 3.5 mph - N/A   Scattered Clouds
10:35 PM 69.8 °F - 64.4 °F 83% 30.09 in 10.0 mi East 5.8 mph - N/A   Mostly Cloudy
10:55 PM 69.8 °F - 64.4 °F 83% 30.09 in 10.0 mi East 5.8 mph - N/A   Scattered Clouds
11:15 PM 68.0 °F - 64.4 °F 88% 30.09 in 10.0 mi ESE 4.6 mph - N/A   Scattered Clouds
11:35 PM 68.0 °F - 64.4 °F 88% 30.09 in 10.0 mi East 4.6 mph - N/A   Clear
11:55 PM 68.0 °F - 64.4 °F 88% 30.10 in 10.0 mi ESE 3.5 mph - N/A   Clear